Theta_e
304 304 304 305 306 305 305 304 304 303 303 298 296 295 286 286 286 295 297 302 300 288 280 284 284 283 285 289 288 289 288 287 288 288 289 288 289 287 287 287 285 285 285 284 285 287 283 285 281 282 287 288 290 291 288 293 291 292 286 285 288 293 281 278 278 278 280 284 286 286 286 284 282 282 283 283 280 280 279 278 277 276 277 276 273 272 279
305 304 304 305 306 305 304 304 304 303 303 299 297 288 286 287 287 290 296 301 299 285 278 279 282 285 286 284 284 287 286 286 286 286 287 286 285 286 282 284 287 285 286 285 284 289 281 287 285 283 287 284 290 290 289 292 290 289 284 281 286 279 279 278 272 268 272 275 277 280 282 284 279 279 281 283 283 284 283 282 282 277 278 278 274 270 279
304 304 304 305 306 305 304 304 303 303 303 302 296 291 290 287 288 288 292 296 295 285 283 284 283 281 279 280 280 282 284 288 289 288 287 290 286 284 278 283 285 285 286 284 286 288 287 284 289 286 284 286 290 290 289 291 290 291 294 294 291 281 276 276 267 265 262 261 261 267 273 277 280 283 283 283 284 282 281 276 277 275 276 280 274 275 284
304 304 304 305 306 305 304 303 303 303 303 302 293 293 291 284 279 284 284 287 291 291 292 289 282 278 280 279 280 281 281 285 288 288 287 289 288 285 283 283 286 283 282 280 283 282 288 286 284 282 282 285 288 290 289 290 290 293 296 297 290 280 281 280 276 273 271 273 274 277 283 278 278 279 282 282 284 286 283 279 275 275 276 276 280 283 283
304 304 304 305 305 304 303 303 302 303 303 303 294 292 288 283 280 278 279 283 285 282 282 281 281 278 283 279 283 280 281 283 284 287 281 287 286 285 285 283 279 277 280 278 280 282 283 288 286 284 283 286 288 290 289 290 292 295 295 296 290 284 280 281 280 279 280 280 279 280 284 280 281 280 281 283 283 283 282 278 277 280 278 276 283 284 281
304 304 305 305 305 304 303 302 302 303 302 302 294 285 285 278 281 282 284 280 276 277 275 281 281 281 283 282 286 283 280 280 278 284 286 287 287 283 283 285 282 282 279 280 279 285 285 283 277 283 285 286 290 289 289 288 293 296 293 297 291 285 279 283 281 280 281 281 281 283 283 282 283 283 283 283 284 283 281 280 283 282 279 278 282 282 281
304 304 305 305 304 303 303 302 302 303 302 300 287 284 285 284 284 284 286 279 279 279 282 284 282 281 281 280 282 277 279 279 281 281 282 284 283 285 277 280 283 282 283 281 281 283 282 282 285 284 284 286 286 283 285 289 292 294 292 294 293 289 282 285 285 283 284 285 285 285 283 282 283 283 284 285 284 284 284 283 284 284 283 284 283 284 284
304 304 305 305 303 303 303 302 302 302 301 295 292 289 285 285 286 283 287 287 285 283 281 281 280 278 283 278 278 281 279 276 281 283 282 277 281 286 282 282 284 284 284 281 279 282 286 285 283 286 287 286 287 285 285 283 288 293 291 292 292 290 282 286 284 282 282 284 286 285 285 284 282 284 284 285 286 285 285 285 285 285 284 284 284 283 284
304 304 305 304 304 303 302 302 302 302 301 291 290 290 292 291 291 291 287 283 282 282 280 280 279 276 277 277 280 281 280 279 282 282 286 283 280 283 282 284 283 285 283 282 282 284 285 286 287 289 288 283 288 287 288 289 286 287 287 289 290 289 283 288 283 279 279 283 284 285 285 284 282 282 283 283 283 282 284 283 286 284 283 284 283 282 283
304 304 305 305 303 303 303 302 302 302 301 293 292 289 295 293 293 294 289 282 286 280 278 279 277 273 278 282 281 280 280 283 284 280 284 285 286 286 285 285 283 282 282 282 285 288 288 288 289 289 290 290 290 291 291 291 290 288 286 287 286 286 284 282 281 278 278 282 284 283 283 282 279 280 283 285 284 285 286 287 288 288 288 284 280 283 287
304 304 305 305 304 303 303 303 302 302 300 294 292 291 293 291 290 291 291 282 279 279 280 278 278 282 281 283 281 283 282 283 283 279 280 285 285 288 286 284 282 282 282 286 292 292 291 291 291 291 290 289 289 289 290 292 292 292 289 286 283 286 286 282 285 279 278 282 282 282 279 272 273 281 286 288 286 285 284 285 288 289 288 286 288 289 290
304 304 305 305 304 304 304 303 302 301 301 297 296 293 295 296 294 293 287 281 281 281 280 277 279 280 280 283 283 282 282 282 282 285 282 283 285 287 286 285 284 280 288 293 293 292 292 294 291 292 292 290 289 290 291 290 291 293 293 290 286 285 285 282 285 280 278 281 282 276 270 273 285 288 289 290 291 290 288 288 289 289 289 289 289 290 290
304 304 304 305 304 304 304 304 303 301 302 298 297 293 296 298 293 290 288 285 280 281 280 280 283 284 284 284 283 283 283 284 285 285 285 284 284 285 286 285 285 287 293 291 291 289 287 286 285 285 286 287 287 290 289 289 290 293 293 291 289 285 284 281 282 281 280 279 276 273 274 284 288 288 292 293 292 289 288 287 289 290 290 291 289 291 293
304 304 304 305 305 305 304 304 303 302 302 301 296 294 295 297 291 291 289 284 282 283 283 283 284 282 282 282 282 283 285 284 284 284 281 284 283 285 287 289 290 293 292 292 288 287 284 283 278 281 283 286 285 285 285 287 290 292 292 292 293 290 286 283 282 283 278 276 276 280 285 285 287 287 290 290 288 288 288 284 289 293 290 290 291 292 294
304 304 304 304 304 304 305 303 302 302 301 301 296 293 292 294 296 292 293 289 282 284 285 279 281 282 282 283 283 283 283 282 282 281 285 287 285 287 288 291 292 292 292 288 286 283 281 281 281 280 279 282 280 281 287 285 290 291 292 292 293 293 288 285 283 281 282 280 278 278 277 276 281 289 293 295 294 293 292 291 288 295 296 293 292 295 299
304 304 304 304 304 304 304 303 302 302 301 302 298 294 293 295 296 295 293 289 285 280 283 286 285 284 283 284 285 283 281 281 282 283 282 282 284 287 290 291 292 293 291 291 284 280 279 280 280 281 280 282 287 285 281 286 287 292 292 291 288 287 290 285 283 280 280 280 277 276 275 278 285 289 293 296 297 296 294 288 284 292 294 298 300 298 299
304 304 304 304 304 304 304 303 302 302 301 301 296 294 294 297 296 294 292 291 288 283 288 288 287 287 285 284 282 278 279 279 282 280 279 281 283 286 287 291 292 290 290 285 283 280 281 279 280 281 284 288 284 282 287 285 284 286 291 291 288 281 278 281 280 279 279 278 277 277 278 281 286 292 295 298 299 298 293 281 279 290 297 298 299 298 298
303 304 304 304 304 304 304 303 303 303 301 303 299 296 294 295 295 297 293 290 285 284 287 288 286 283 283 283 281 283 283 283 285 287 284 285 284 282 285 288 286 290 291 284 282 277 277 276 277 278 280 289 288 290 281 286 283 283 283 284 283 280 279 280 280 277 280 280 280 278 281 286 292 295 298 300 300 296 283 279 284 294 296 299 300 300 299
303 304 304 304 304 304 304 304 304 304 301 301 301 298 295 294 295 296 293 289 287 282 287 291 290 287 288 290 287 287 286 286 286 283 283 281 280 284 287 287 288 282 287 281 279 278 276 276 280 281 281 282 285 281 288 285 283 288 285 283 282 284 283 281 280 280 281 280 279 281 284 290 295 297 298 301 295 284 282 291 298 299 299 301 302 301 301
303 304 304 304 304 304 304 304 304 303 301 301 300 294 295 295 296 296 292 287 288 286 289 290 290 287 290 287 284 283 283 285 285 283 280 278 284 287 282 279 283 285 283 283 279 280 276 276 278 282 281 281 283 287 284 286 289 286 285 288 284 284 283 283 282 284 283 281 280 280 279 288 295 298 296 300 287 287 296 299 301 302 301 301 302 302 301
304 303 304 304 304 304 304 304 304 302 301 301 300 296 294 297 296 296 296 293 288 283 285 292 291 290 290 289 290 289 287 284 282 281 282 283 286 282 274 273 279 283 280 282 279 278 279 276 279 281 284 284 284 284 279 282 284 291 291 288 287 290 284 284 285 287 282 282 281 282 287 294 298 297 288 295 297 300 301 300 299 302 303 303 302 302 302
304 303 303 304 304 304 305 304 304 302 301 301 300 297 293 297 297 297 297 297 290 286 288 291 292 291 292 293 293 293 292 291 292 291 286 283 286 284 281 282 284 284 284 285 280 279 281 281 281 278 277 280 284 281 285 281 279 285 291 292 283 291 287 289 285 290 287 285 288 291 295 296 298 300 299 300 302 303 303 303 303 302 303 306 303 303 304
304 304 303 303 304 304 304 304 304 302 301 301 300 296 293 296 297 300 298 292 293 294 295 293 294 294 295 295 296 296 295 295 294 292 291 287 283 287 286 286 285 288 287 287 284 282 282 282 277 280 280 281 279 280 281 283 279 282 284 293 290 294 295 295 291 289 292 295 295 297 297 297 298 300 302 301 303 305 305 304 303 304 305 305 304 305 305
304 304 303 304 304 304 304 304 303 302 301 301 300 297 295 296 298 297 295 294 289 285 288 292 287 281 284 287 290 294 295 294 294 294 295 293 284 283 288 289 289 286 285 286 287 285 283 281 282 284 281 281 284 280 279 278 280 284 286 285 287 292 296 294 288 291 289 285 292 293 295 297 298 299 301 303 304 305 306 305 305 305 305 306 307 306 306
304 304 303 304 304 304 304 304 303 302 301 301 300 301 300 297 297 297 291 284 285 284 280 283 286 291 293 293 294 292 294 296 297 295 294 293 291 286 284 287 291 288 285 286 288 284 279 280 280 281 278 283 285 281 282 281 284 287 283 285 288 287 296 290 290 291 288 288 294 295 296 296 298 300 300 302 304 305 306 306 307 307 308 307 307 307 306
304 304 303 303 304 304 304 304 303 302 302 301 301 298 296 296 298 298 295 293 291 287 281 281 287 294 293 292 291 293 295 295 295 295 295 294 294 293 292 291 291 292 290 289 289 283 281 280 279 279 279 282 288 280 279 286 287 290 288 287 292 293 295 287 291 288 291 292 293 293 294 296 298 301 302 303 304 304 305 306 306 307 307 307 307 306 305
304 304 303 303 303 304 304 304 303 302 302 302 301 300 299 299 299 297 293 292 287 283 283 280 286 290 293 291 294 295 296 295 294 293 294 295 294 294 293 291 290 289 289 287 284 283 282 281 278 280 283 283 284 285 286 287 286 286 285 292 296 293 288 291 290 286 286 286 290 294 287 288 295 299 301 303 305 305 305 305 306 306 306 306 305 305 306
304 304 303 304 304 304 304 303 303 303 302 302 301 300 300 298 298 298 298 296 289 282 282 283 284 289 294 290 293 293 294 295 294 293 293 293 293 293 292 291 290 288 286 285 283 281 280 279 281 280 281 282 284 284 285 287 289 287 288 291 294 291 291 290 286 287 286 293 296 296 295 295 298 300 302 303 304 304 303 303 304 305 305 306 305 304 305
304 304 303 303 303 304 304 303 303 303 302 301 299 297 297 298 298 299 299 298 295 289 287 287 290 288 281 287 293 292 293 293 292 291 291 291 292 292 291 291 290 289 287 283 280 279 277 282 279 282 285 285 287 282 284 283 284 284 289 293 294 295 296 293 292 293 295 296 296 297 296 295 299 302 302 303 304 304 303 304 305 305 305 305 305 305 304
304 304 303 303 303 304 304 303 303 302 302 299 297 293 288 291 300 298 298 298 295 294 285 284 281 284 291 290 289 291 291 292 292 291 290 289 290 290 290 290 289 291 288 284 282 281 281 282 280 283 288 292 288 279 281 280 281 285 292 293 294 294 293 294 295 293 293 298 298 298 298 299 301 301 302 302 304 304 302 303 303 303 304 305 305 305 305
304 304 303 303 304 304 304 303 303 302 301 297 294 286 285 283 293 300 299 299 297 293 287 286 284 288 286 288 288 289 290 291 290 289 289 290 290 290 291 291 289 291 284 283 283 283 279 279 279 283 288 292 290 283 282 282 283 286 292 293 293 292 291 291 295 296 298 297 298 299 299 299 300 300 301 301 302 302 302 302 303 304 304 305 306 306 306
304 304 303 303 304 304 304 303 303 302 300 296 291 289 289 292 297 300 300 300 298 292 286 283 283 282 281 285 288 290 290 291 290 289 288 290 290 290 289 290 287 291 288 283 281 283 282 282 283 287 289 293 292 284 283 284 284 286 291 292 293 292 292 291 292 295 294 295 296 297 296 297 298 297 296 299 300 301 301 302 303 304 305 305 306 306 306
304 304 303 303 303 304 304 303 303 302 298 300 302 302 302 302 302 301 301 298 295 289 289 285 282 284 281 283 288 288 290 289 286 287 289 288 289 289 286 289 289 288 296 287 282 282 283 280 282 285 290 292 287 283 286 286 287 291 292 292 292 292 291 290 292 293 291 292 294 292 293 294 296 298 299 299 300 300 301 302 303 303 304 304 304 304 305
304 303 303 303 304 304 303 303 303 301 301 297 292 294 298 301 301 302 300 297 293 291 288 285 281 280 280 285 282 286 290 286 285 285 284 289 289 288 284 287 287 285 287 286 283 284 283 284 283 282 286 284 283 283 283 287 290 290 291 291 292 292 291 290 291 290 290 291 292 295 297 297 298 299 299 299 299 301 302 301 301 300 301 301 302 302 303
304 303 303 303 303 303 303 301 299 297 293 294 294 296 298 300 301 301 300 295 287 285 285 286 285 281 280 279 274 281 288 287 284 284 283 287 288 288 287 283 282 284 283 289 282 280 279 282 285 282 282 284 284 282 284 287 288 290 290 290 291 291 290 288 289 290 290 291 291 294 294 295 295 296 297 298 299 300 300 300 301 300 299 300 301 302 302
303 303 303 304 303 301 299 299 297 294 291 291 293 299 303 304 302 300 300 299 293 285 284 285 284 281 280 275 274 280 289 285 284 284 285 283 287 286 284 283 282 283 287 284 280 279 281 287 285 283 284 283 282 285 286 288 288 289 289 289 290 290 289 289 289 290 290 290 290 292 291 292 292 294 296 297 298 299 299 299 300 301 299 299 300 301 301
303 303 303 301 299 296 292 291 297 295 293 297 299 304 303 302 300 300 297 295 297 297 288 285 282 282 282 279 278 282 286 281 283 281 280 283 282 281 280 280 279 283 282 278 274 280 285 289 287 286 285 283 284 289 289 289 289 289 289 290 291 291 291 290 290 289 288 288 289 289 289 289 290 292 293 294 296 298 298 298 298 299 299 298 298 299 300
303 302 298 295 293 286 286 288 294 300 302 301 302 296 293 292 286 288 289 287 290 293 287 288 283 285 284 281 278 285 284 280 281 281 278 276 281 281 277 281 281 283 277 275 278 286 280 283 285 285 285 290 290 289 289 289 289 291 291 291 291 291 291 290 289 287 286 285 286 287 287 288 288 289 290 291 294 296 297 298 299 300 300 299 298 299 299
300 297 295 294 289 285 286 293 302 302 301 299 296 290 287 285 284 285 285 286 287 285 287 286 284 287 285 282 284 288 286 282 279 277 278 280 280 280 279 278 280 279 275 275 279 285 280 282 284 285 283 287 287 288 290 289 290 291 291 291 291 291 291 289 289 287 286 285 286 287 288 287 286 287 289 291 293 296 297 298 298 300 300 298 298 297 299
295 290 287 288 286 289 297 300 301 299 296 289 287 286 284 285 283 281 284 282 283 285 287 283 288 287 287 283 281 281 286 283 277 276 274 281 283 280 278 279 277 279 273 274 277 281 278 279 283 284 282 284 285 287 287 287 288 289 290 290 289 290 291 289 288 288 287 287 288 289 289 289 289 289 289 290 292 294 295 296 298 299 299 299 296 296 297
293 292 290 286 292 296 297 299 298 294 288 286 285 284 282 281 283 281 280 278 277 278 284 283 285 284 286 285 283 281 287 288 284 283 280 281 283 281 277 278 280 278 274 273 276 277 276 280 283 282 281 285 285 286 286 286 287 288 289 289 289 290 290 289 288 287 287 286 287 288 288 288 288 288 289 290 292 293 294 295 297 298 299 299 297 296 296
294 293 295 297 297 297 296 293 288 287 286 286 283 280 282 282 281 279 278 276 274 274 280 282 280 280 281 286 285 285 283 285 283 280 280 278 281 280 276 276 278 275 273 274 277 272 275 278 280 281 284 286 286 286 285 285 286 287 287 288 288 289 289 288 287 287 286 286 286 287 288 287 287 287 288 290 292 293 293 293 294 296 298 298 297 297 296
300 299 298 294 292 288 288 286 287 286 281 282 279 278 279 276 277 275 274 277 279 281 280 288 285 286 287 289 283 286 282 284 284 279 280 277 279 279 278 275 274 274 274 276 277 275 279 279 279 282 286 285 285 285 285 286 286 287 287 288 288 289 289 288 287 285 285 286 286 287 287 287 287 287 289 290 291 291 292 291 291 293 295 297 298 297 296
298 297 292 287 286 286 287 280 287 283 281 280 278 275 276 275 275 277 277 277 279 282 283 284 283 282 279 281 283 280 281 284 284 279 279 277 278 275 274 275 275 277 278 273 275 279 280 282 282 284 285 285 285 285 285 285 286 286 286 287 288 288 288 288 286 285 285 286 287 287 287 286 286 287 288 289 289 289 290 289 290 291 293 295 296 295 295
289 286 286 286 283 286 284 278 287 282 277 279 280 277 276 273 275 277 276 281 283 283 283 281 281 282 282 282 282 280 281 279 280 278 276 278 278 275 275 273 273 273 274 273 273 277 281 280 284 285 284 284 284 284 285 285 286 285 285 286 287 287 287 287 285 285 285 285 286 287 286 286 286 286 287 287 289 290 289 288 289 291 293 294 294 294 295
286 284 285 281 278 283 283 280 281 278 280 279 280 281 280 278 278 280 281 283 283 282 282 284 282 282 281 279 280 279 278 276 277 277 276 275 273 273 273 276 274 270 270 271 274 276 278 281 283 283 284 284 284 284 285 285 286 286 286 284 285 286 287 286 285 285 285 285 286 286 286 286 286 286 286 287 288 288 288 288 289 290 290 291 291 291 292
287 287 285 285 280 283 284 279 280 281 281 282 282 282 282 281 281 281 282 282 284 283 283 282 283 283 281 279 279 277 273 276 277 276 276 276 273 275 278 277 273 273 273 275 276 278 280 283 283 284 285 285 284 284 285 285 285 285 285 285 285 286 286 286 285 285 285 286 286 286 286 286 286 286 287 287 287 287 287 287 288 289 290 289 289 289 289
284 287 286 279 277 282 280 281 283 282 282 283 282 280 281 280 282 284 284 283 283 283 283 282 281 277 278 278 281 276 274 275 277 277 278 276 279 278 277 276 276 278 279 277 277 282 282 283 283 284 285 285 284 283 283 284 284 285 285 284 284 285 285 285 285 285 285 285 285 285 286 286 286 286 286 286 287 287 287 286 287 287 288 288 287 287 287
286 285 283 283 283 282 281 282 282 283 282 280 279 280 282 283 281 282 283 282 283 284 283 283 277 278 277 275 276 276 277 276 273 273 277 276 277 276 277 276 277 275 280 281 280 282 282 283 284 284 284 283 283 283 283 284 284 284 284 284 284 284 285 285 285 285 285 285 285 285 285 286 286 286 286 286 286 287 288 287 286 286 286 286 286 285 286
286 285 284 282 281 281 282 282 282 280 279 278 279 281 279 281 282 283 282 284 282 281 281 284 281 279 277 278 274 273 273 275 275 276 273 272 277 279 278 275 276 275 278 281 281 282 284 284 283 282 283 283 283 283 283 284 284 284 285 285 285 284 284 284 284 285 285 285 285 285 285 286 285 285 285 285 286 287 287 286 286 286 286 286 285 285 284
287 285 284 286 282 281 282 277 276 275 277 280 280 280 280 281 281 284 285 282 280 277 275 276 275 275 273 272 274 271 274 278 276 277 278 277 280 279 278 276 278 280 280 282 283 284 284 283 283 282 282 283 283 283 284 284 284 284 284 285 284 284 284 284 284 284 284 284 285 284 284 285 285 286 287 287 287 286 286 285 286 286 285 286 286 285 284
284 282 283 283 284 284 283 281 280 278 278 278 279 279 280 283 281 280 281 280 278 277 277 275 276 273 272 271 272 273 276 273 272 272 273 278 281 278 278 278 280 281 281 281 281 283 284 284 283 283 283 282 283 283 284 284 284 284 284 284 284 284 283 283 284 284 284 284 284 284 284 285 285 286 286 286 285 285 284 284 285 285 285 285 285 286 285
Wind_Speed
18 18 18 19 21 22 22 25 23 21 21 8 6 3 4 5 1 3 4 5 3 5 3 1 3 2 4 6 5 3 3 3 3 4 1 3 1 1 1 3 1 2 1 1 2 1 4 4 3 3 2 6 6 4 7 5 2 2 1 1 2 5 1 2 6 5 8 11 11 10 3 3 1 3 1 2 4 3 6 5 5 3 2 2 1 2 11
17 18 18 19 21 21 23 24 23 21 20 9 6 3 2 1 2 4 4 4 4 8 4 4 4 2 3 3 6 3 3 1 4 1 3 1 2 0 2 3 3 3 1 0 3 1 4 3 3 4 1 5 5 4 7 6 3 4 3 3 3 2 2 3 2 4 7 5 4 2 2 1 1 1 2 3 3 3 3 2 2 1 5 6 3 5 14
17 18 19 20 21 18 22 23 22 21 20 12 1 3 1 1 1 2 6 6 5 3 3 1 4 4 5 3 6 6 2 4 5 5 4 1 2 2 4 4 2 1 1 3 5 6 7 5 2 2 2 5 1 2 6 7 4 4 4 3 1 1 2 4 1 1 1 1 1 3 3 1 2 1 0 2 3 5 4 2 3 4 3 4 4 7 17
16 17 18 19 19 18 19 20 20 21 20 14 3 1 2 3 2 3 4 6 4 3 2 4 1 3 5 5 2 2 3 3 6 3 5 1 2 2 3 3 1 1 5 5 5 4 4 6 3 3 4 4 3 3 5 6 6 5 9 6 2 2 1 3 6 5 6 6 5 4 2 1 1 3 2 4 2 3 1 3 3 7 3 5 9 17 16
16 16 17 18 17 17 19 19 20 21 20 13 2 2 2 0 3 2 6 4 4 2 3 3 2 2 1 1 2 2 4 4 5 4 2 2 5 3 2 2 5 6 8 4 6 4 3 9 7 5 6 4 5 2 7 5 8 10 5 5 0 2 3 5 7 8 11 7 5 4 5 4 3 3 7 5 4 2 2 6 7 3 0 8 14 12 6
15 15 16 16 16 18 19 19 20 21 23 11 2 3 3 3 1 2 1 1 4 5 3 4 5 2 2 3 2 3 5 7 6 4 2 6 4 1 1 0 0 1 3 6 5 4 8 2 3 4 4 4 4 7 2 5 7 9 3 2 3 1 2 4 0 7 10 8 7 4 2 4 4 4 7 9 9 5 7 5 5 3 6 15 5 3 4
14 15 16 14 16 17 18 20 20 21 22 10 3 4 2 3 0 0 2 1 2 3 4 5 3 8 3 3 1 2 3 3 2 3 6 2 3 2 2 5 10 12 4 1 4 5 7 4 3 1 5 4 7 4 2 5 5 5 3 2 3 1 4 3 1 6 8 8 7 6 5 3 3 8 8 13 13 13 10 8 9 11 13 11 7 10 11
14 14 14 13 15 15 17 19 19 20 21 5 6 4 2 3 3 3 1 3 4 3 3 2 3 3 3 1 1 1 1 3 5 2 2 4 4 2 2 8 12 14 13 3 4 7 5 7 10 4 2 13 2 4 4 1 0 3 4 3 3 4 3 5 0 2 7 6 7 6 8 5 7 10 9 12 12 12 11 6 10 9 11 15 16 14 15
12 12 13 12 13 14 16 17 17 17 16 6 5 3 3 0 0 1 4 4 3 1 1 3 2 2 3 1 3 1 2 2 4 10 7 10 4 0 6 9 13 13 8 10 11 14 12 12 15 14 12 11 4 1 3 1 2 1 2 2 2 7 3 2 2 3 6 5 7 11 10 4 4 10 10 10 10 8 7 6 9 7 12 11 9 9 12
11 11 11 11 11 13 14 15 14 12 12 4 2 4 2 1 1 1 1 2 2 2 1 3 1 1 1 1 1 2 6 5 6 9 3 3 8 7 6 8 7 14 11 13 11 7 7 13 16 14 13 12 14 11 11 6 5 2 2 2 3 6 4 3 2 4 8 8 5 5 1 2 7 10 12 14 10 8 5 9 8 12 13 12 11 13 9
11 10 10 10 10 11 12 12 12 10 6 5 3 2 3 4 3 3 1 1 3 0 2 2 1 2 1 2 3 2 5 7 3 2 4 6 7 4 3 10 7 10 11 12 10 12 17 16 17 11 10 12 13 10 10 10 8 7 4 2 3 2 6 3 3 3 5 2 1 0 2 1 3 5 5 9 7 10 10 8 10 10 8 7 6 8 7
10 10 9 9 9 9 10 10 10 11 5 2 0 1 1 3 3 2 2 3 3 1 1 4 4 4 2 6 3 6 8 8 7 4 11 7 16 14 9 8 4 7 5 10 16 17 18 7 2 2 4 6 9 7 6 8 8 7 9 8 5 4 2 2 3 2 5 1 2 2 1 4 2 5 5 2 2 1 6 11 12 11 9 11 12 13 12
10 9 8 9 9 9 9 9 9 9 6 2 2 3 2 3 2 2 2 1 4 3 6 4 2 6 8 9 8 7 8 9 9 10 10 10 10 6 3 3 3 8 12 18 21 17 7 4 6 2 6 1 1 3 4 7 10 7 7 7 5 6 6 2 2 3 3 3 1 3 5 5 2 5 6 2 2 2 5 10 13 13 11 10 11 14 14
10 9 8 8 9 10 10 7 7 6 7 3 1 0 1 1 2 1 1 1 5 2 3 9 5 4 3 5 6 9 9 9 9 7 5 3 6 10 10 4 7 11 15 13 11 5 3 5 4 7 6 6 2 3 2 4 4 3 5 9 11 10 2 3 4 2 3 2 2 8 6 9 2 1 0 1 1 1 1 5 10 9 4 4 5 9 7
10 9 8 8 9 10 9 5 6 6 5 3 2 1 1 2 1 1 1 1 4 7 3 4 5 5 3 5 2 8 6 6 8 4 5 5 6 4 4 10 11 13 12 6 5 4 2 1 5 6 5 6 5 3 3 3 3 3 7 6 8 7 9 1 3 3 4 6 6 4 2 3 4 4 1 3 2 3 3 0 14 12 8 2 3 6 9
10 9 9 8 9 9 6 4 5 6 7 4 1 1 2 2 1 1 2 2 2 7 3 7 3 3 6 7 6 6 5 6 5 8 6 1 4 9 7 5 13 11 5 0 1 2 4 3 1 3 3 4 2 2 4 4 6 5 4 3 3 1 3 2 5 3 1 1 2 3 3 5 2 6 5 4 4 6 5 2 11 4 2 2 1 6 8
10 9 9 9 8 8 6 6 6 6 6 5 1 0 1 2 1 2 2 2 3 9 3 3 3 3 6 7 1 2 1 3 5 6 7 6 5 9 14 12 6 2 6 3 5 4 6 5 1 1 2 2 4 2 6 2 8 9 11 0 5 4 2 1 3 4 3 2 2 5 3 4 2 3 3 2 3 2 3 4 3 3 5 4 5 6 7
10 10 10 9 8 7 7 6 7 7 5 3 2 0 2 2 2 1 2 2 3 6 4 2 2 2 4 4 5 3 0 2 2 3 6 8 7 4 8 9 9 5 3 5 4 4 3 3 4 2 2 2 3 3 4 6 5 4 6 7 6 5 4 2 3 3 5 5 4 3 5 3 3 3 4 3 3 4 5 7 1 4 8 11 7 6 8
10 10 10 9 8 8 7 7 7 8 5 4 1 3 2 2 2 1 1 3 3 7 3 2 3 4 3 1 3 2 2 3 3 6 6 6 1 3 10 4 1 5 7 3 3 2 2 1 0 1 2 4 3 2 4 5 4 4 4 5 2 2 1 2 1 3 4 2 4 4 4 3 3 5 6 2 4 4 5 2 4 4 11 12 10 9 8
9 10 10 9 9 9 8 7 7 7 6 3 2 3 3 3 4 4 4 4 3 10 9 11 8 12 3 3 3 2 3 3 3 3 1 6 2 11 7 2 2 3 5 3 3 1 2 2 2 1 2 2 2 1 3 4 3 4 4 2 1 2 3 6 5 4 2 0 3 4 6 2 5 5 8 1 1 3 5 9 11 11 12 12 9 6 8
10 10 10 10 10 9 9 8 7 6 6 5 3 2 3 2 2 3 4 3 5 9 8 3 3 9 5 8 9 8 7 10 4 3 4 4 2 4 1 2 3 4 2 2 2 3 0 3 3 1 1 2 4 3 3 6 8 4 3 2 2 0 2 4 2 1 6 3 4 2 4 13 1 3 5 7 9 10 12 9 13 11 8 7 4 4 5
11 10 10 10 10 10 9 8 6 6 6 5 5 2 4 2 3 3 4 5 7 9 8 6 4 11 11 11 12 10 11 13 13 7 5 5 1 4 4 2 3 1 2 1 2 2 4 2 1 2 3 4 2 2 4 4 3 3 2 1 5 3 3 3 6 2 1 5 8 9 12 12 7 2 10 13 16 13 12 11 10 8 7 4 4 5 5
11 11 11 11 11 11 9 8 7 5 4 5 4 2 4 2 2 2 2 7 6 8 9 13 10 12 11 12 15 15 14 13 12 7 6 5 4 5 8 7 6 3 2 1 1 1 1 1 3 3 3 3 2 4 2 4 3 3 6 1 6 4 2 1 2 5 5 12 16 16 12 11 15 3 8 12 13 12 11 10 9 8 7 5 6 8 8
12 11 12 12 11 11 10 8 7 6 6 5 4 3 4 3 2 1 3 5 5 8 7 6 3 4 3 4 2 3 7 7 10 13 8 8 6 2 3 6 2 1 2 3 1 1 2 1 4 0 2 4 0 2 2 4 2 2 5 7 1 3 2 0 4 5 7 9 2 3 11 13 16 8 9 9 9 10 9 9 9 9 8 7 7 7 9
12 11 11 12 11 11 10 8 6 7 6 7 6 4 5 5 4 4 2 3 2 2 6 5 7 12 8 6 4 3 7 7 6 9 8 11 12 9 7 6 8 6 5 1 0 4 2 2 4 1 4 5 2 5 2 1 5 2 6 6 6 4 4 9 3 12 6 7 15 15 12 15 13 5 5 10 12 12 10 7 8 8 8 7 7 7 9
13 12 11 12 11 11 11 8 7 7 7 8 7 3 4 5 2 4 2 3 2 2 6 5 6 3 2 5 6 5 4 5 8 9 11 14 15 15 11 2 3 0 0 1 3 1 2 2 3 3 2 6 1 2 3 6 6 4 4 7 2 9 8 5 12 8 11 13 9 7 17 11 5 10 10 9 11 13 12 10 10 10 10 8 7 5 9
14 14 12 11 12 12 11 9 7 7 8 8 4 4 5 5 4 5 4 2 2 5 2 7 7 5 2 13 11 4 4 4 5 8 9 11 12 11 8 8 8 4 4 4 1 2 2 3 2 5 5 6 1 3 2 6 3 4 2 2 7 7 7 12 10 9 9 5 12 16 11 12 17 15 15 12 12 11 13 12 11 11 12 12 11 10 3
14 14 12 12 12 11 10 9 8 7 7 8 5 5 5 7 6 6 7 7 7 5 4 6 8 14 12 10 5 3 5 5 6 7 8 10 11 11 11 11 8 6 3 2 5 1 3 3 7 3 1 3 1 6 2 3 0 2 1 6 7 6 10 8 8 8 10 15 17 14 13 12 12 12 15 13 8 7 10 12 11 12 11 11 11 12 13
15 14 13 12 12 11 10 9 8 6 6 5 3 5 7 7 5 4 7 6 5 2 4 7 9 7 4 9 9 7 5 5 6 8 8 9 9 10 11 11 10 6 3 3 2 1 3 5 2 3 2 4 2 5 3 2 0 1 4 11 10 6 6 12 12 15 13 11 13 14 12 11 13 14 14 13 8 9 12 10 8 11 11 11 11 10 11
14 14 13 12 12 11 11 9 8 6 4 1 1 2 3 2 2 1 4 5 4 2 3 4 7 4 3 3 7 4 4 4 7 8 9 8 8 10 10 9 8 7 5 4 5 4 4 3 3 3 3 1 2 1 0 1 1 1 9 14 14 12 7 6 9 11 12 15 15 15 16 15 11 8 11 8 11 11 11 12 11 12 12 8 10 11 10
14 14 13 12 12 11 11 10 8 6 4 1 1 1 1 2 1 1 6 4 5 2 1 2 7 7 7 3 3 9 11 10 4 4 7 8 9 9 7 6 4 8 6 4 2 6 0 4 0 2 1 3 3 1 2 2 2 2 9 14 13 14 15 16 12 12 13 15 16 16 11 9 10 14 12 13 17 14 12 11 10 10 9 10 9 8 9
15 15 13 12 11 11 11 9 8 6 3 4 5 4 3 0 1 5 6 4 3 1 1 5 5 2 3 5 3 3 6 7 2 2 2 2 2 3 4 10 6 8 6 5 3 1 4 4 2 5 2 3 3 1 1 2 4 8 14 12 11 12 13 14 15 13 13 13 16 16 15 18 14 12 11 17 16 14 10 12 11 9 9 7 5 5 6
15 14 13 11 11 11 11 9 9 6 4 5 11 15 15 12 8 8 4 1 2 1 1 1 3 3 3 6 8 5 2 3 3 4 6 1 1 2 2 3 3 2 4 3 2 4 3 3 1 0 2 1 1 0 2 3 6 10 11 12 13 14 15 15 11 9 13 15 13 12 13 15 16 18 14 12 10 9 12 11 11 9 9 9 10 12 12
14 13 12 10 10 10 9 9 6 6 5 4 6 7 6 12 15 19 7 2 1 0 0 1 3 3 6 4 5 4 3 3 4 3 4 2 1 0 2 3 2 3 3 6 3 0 2 1 3 2 2 3 2 2 2 6 12 13 13 12 13 13 12 12 6 15 17 16 16 12 10 12 13 11 11 14 16 15 14 11 9 13 12 10 9 9 8
14 11 10 8 8 7 6 4 2 2 4 4 6 6 4 8 7 8 12 7 4 1 1 1 1 4 5 5 2 7 1 2 3 1 1 6 1 1 1 1 0 0 1 1 1 1 1 2 4 4 1 2 4 4 2 9 13 12 12 13 14 15 17 20 18 17 17 16 15 14 16 14 15 15 14 14 15 15 16 16 11 10 11 10 10 9 8
11 10 8 7 4 1 1 1 3 3 4 5 5 4 4 0 5 4 8 3 0 2 2 1 2 3 2 3 4 5 3 3 1 2 2 2 6 1 2 1 1 2 1 3 3 1 0 1 2 2 1 4 4 3 6 9 11 11 12 13 12 11 11 12 16 20 17 15 13 12 18 20 18 15 15 14 14 16 16 14 15 14 10 10 11 10 8
10 8 6 5 2 1 2 2 2 5 4 2 2 4 13 11 5 5 2 1 2 1 2 1 3 5 6 4 2 6 4 4 4 4 4 2 3 2 3 2 1 2 0 1 1 1 1 1 6 4 3 3 3 4 8 9 10 10 12 11 11 11 12 13 15 16 17 13 13 14 15 18 19 16 18 17 16 14 16 17 14 12 11 10 9 9 8
11 10 5 2 3 1 2 2 4 3 5 4 4 2 2 2 1 0 1 1 2 2 2 1 6 2 2 1 6 5 1 5 2 1 4 1 2 3 0 0 1 1 3 2 3 1 3 4 3 3 3 5 5 6 8 8 9 8 9 11 11 10 11 12 16 18 20 22 23 22 20 18 18 17 15 19 18 16 14 12 11 7 8 10 7 5 8
13 3 2 2 2 3 3 1 2 1 3 2 2 0 1 0 1 0 2 1 1 2 1 4 6 4 4 4 8 2 3 2 5 2 1 2 1 5 2 2 4 2 2 2 3 2 1 2 2 1 4 5 5 8 9 7 8 7 9 8 10 10 9 11 13 13 13 12 13 14 13 13 16 18 16 15 16 15 13 11 10 10 6 6 7 7 7
4 4 3 3 5 4 2 1 2 1 1 1 1 1 1 0 1 2 1 1 2 2 2 5 3 4 8 9 3 6 0 3 1 4 2 6 0 1 2 0 2 1 2 0 4 3 3 2 0 1 3 7 8 9 10 11 10 10 10 11 13 13 10 12 13 11 10 10 10 11 10 10 11 11 13 14 14 15 16 14 12 9 8 8 8 7 6
4 3 3 3 3 2 1 0 1 1 1 0 0 0 1 1 2 2 2 1 2 4 2 3 1 2 4 3 3 7 5 0 2 1 2 2 3 1 1 1 1 0 1 1 3 3 2 2 1 2 3 4 7 9 10 9 10 11 10 12 13 12 13 13 13 13 13 13 11 11 10 11 12 11 9 11 12 12 13 13 13 11 10 10 10 8 6
5 4 2 2 2 2 1 1 1 1 0 1 1 2 2 2 0 0 2 2 4 2 2 3 1 4 5 10 7 3 5 3 1 1 0 2 1 1 3 1 2 1 1 2 1 3 3 2 1 2 3 6 7 8 9 10 11 12 14 14 14 14 15 14 15 14 12 12 13 12 11 13 13 12 12 12 12 12 12 14 15 16 13 9 8 8 8
10 6 3 2 1 0 1 1 2 1 2 2 1 2 1 0 2 3 2 2 1 1 1 1 3 1 0 2 2 4 3 1 0 1 0 2 1 1 0 1 1 1 2 2 3 3 3 2 3 2 3 6 8 9 9 10 11 12 12 13 13 13 15 15 14 14 13 12 13 13 13 13 13 12 12 11 12 14 14 12 12 13 14 11 7 8 8
4 2 1 0 1 1 1 3 1 2 1 1 3 4 2 1 3 0 0 2 1 1 2 2 1 1 1 1 1 1 1 1 1 0 1 1 1 1 1 0 2 4 1 2 3 4 3 2 1 2 4 6 6 9 10 10 11 11 12 14 14 14 14 14 13 14 15 13 12 13 12 11 12 12 12 11 12 13 13 13 13 14 13 11 8 8 7
3 2 1 1 1 1 2 1 1 2 4 3 3 3 3 3 1 3 2 2 1 1 1 1 1 1 2 3 0 1 1 1 1 1 2 0 1 0 1 2 2 2 1 0 1 1 1 2 2 3 6 7 7 7 6 7 10 11 13 14 14 15 15 15 14 14 14 15 16 15 14 13 13 13 12 13 12 10 12 13 14 15 14 12 11 11 9
2 4 3 3 2 2 2 2 2 2 2 2 3 5 4 5 3 2 3 1 0 1 2 0 1 1 2 2 1 2 0 1 1 1 0 1 1 2 3 0 2 2 2 2 2 2 2 2 3 5 6 6 6 6 5 6 7 9 12 12 14 14 14 15 14 14 14 15 15 14 14 14 14 14 13 13 11 11 12 12 12 12 12 13 15 14 13
1 1 1 0 1 2 1 3 3 3 3 3 4 5 5 4 5 3 1 1 0 1 2 1 1 2 1 3 1 2 2 1 1 3 1 1 1 2 1 1 1 1 1 0 1 1 2 3 4 5 6 7 7 7 7 7 8 10 11 11 12 13 13 13 14 15 15 15 15 15 14 14 14 13 12 12 12 11 12 12 13 14 13 14 13 12 12
3 1 2 2 3 3 5 4 1 0 0 1 1 2 4 1 2 1 0 1 1 0 1 1 0 2 1 1 1 2 1 0 0 3 1 1 1 0 1 2 1 0 0 1 1 2 4 4 5 6 5 5 6 8 8 9 10 11 11 12 13 13 13 13 14 14 15 15 14 14 14 15 14 14 13 12 11 10 11 11 11 13 15 14 13 13 13
1 2 3 2 1 1 1 1 1 3 1 3 1 1 3 5 2 1 3 0 0 0 0 0 1 1 2 1 1 1 1 0 1 2 2 2 1 1 2 2 1 2 1 2 2 3 5 5 5 5 5 6 6 6 7 7 8 9 10 11 11 11 11 12 12 13 13 12 12 13 14 13 13 12 13 13 13 12 11 11 11 10 12 13 13 13 13
2 0 1 1 1 1 1 1 1 1 2 2 1 1 1 3 1 1 1 0 0 1 1 1 1 1 1 0 1 0 1 0 0 1 1 0 0 1 1 2 0 0 1 3 3 4 4 3 4 4 5 6 7 8 8 8 8 9 9 10 10 10 11 12 12 12 12 11 12 13 13 13 13 13 13 14 12 11 9 11 12 12 11 10 13 13 13
0 0 1 2 2 1 4 3 5 3 1 2 3 2 2 2 2 1 0 1 1 2 3 1 0 1 1 2 1 0 1 0 1 0 2 1 1 1 1 1 2 2 2 2 2 3 4 3 4 5 6 6 7 7 7 7 8 8 9 9 9 9 9 10 11 11 11 11 11 12 13 13 12 12 11 11 11 10 9 10 12 11 11 10 10 12 13
1 2 2 2 1 2 1 2 0 2 2 3 2 2 2 2 3 1 0 3 3 2 1 1 1 1 1 0 2 1 1 1 0 0 1 0 1 0 1 1 1 2 3 4 4 4 5 4 3 4 5 6 7 7 7 7 7 7 8 8 9 9 9 9 9 10 10 10 11 11 11 12 13 11 10 11 13 13 14 12 12 12 10 8 9 9 10
Wind_Direction
347 347 345 344 347 348 349 350 349 351 353 5 350 348 24 45 193 270 305 329 49 69 74 154 68 351 263 290 283 252 281 251 284 331 337 349 204 310 245 241 358 283 251 319 294 330 284 258 230 235 264 273 227 220 182 174 96 97 304 45 227 141 137 238 283 300 273 274 272 282 270 190 208 250 174 171 252 195 173 184 197 182 283 307 331 236 266
346 346 345 346 348 350 350 350 350 349 1 349 321 63 90 191 288 326 305 356 61 71 53 324 354 311 291 306 270 280 240 318 319 257 291 321 335 265 275 330 184 258 62 111 288 295 319 203 232 301 259 277 253 210 200 182 179 158 229 148 238 178 273 135 318 351 327 335 1 19 345 52 149 192 241 189 247 251 218 116 125 259 215 208 137 242 265
347 345 345 346 348 351 351 349 349 349 351 0 340 21 282 273 259 257 304 349 46 94 180 17 325 343 326 318 319 333 340 219 260 288 283 260 223 358 269 213 324 310 50 264 245 245 220 296 270 232 260 259 289 260 191 203 212 205 223 289 201 175 199 120 137 204 26 318 315 289 307 249 281 271 253 233 226 213 149 175 167 192 269 177 180 247 251
346 346 344 346 346 349 353 348 349 348 350 358 98 284 4 29 12 316 336 8 6 61 59 87 64 325 347 338 286 235 290 309 292 244 269 189 306 246 228 344 65 254 348 331 326 298 220 208 286 8 299 302 298 203 190 200 219 236 242 266 144 212 195 173 178 176 204 211 211 238 132 348 318 279 237 272 247 264 175 120 112 206 201 200 227 232 266
347 346 344 348 347 351 354 351 349 348 347 360 126 14 100 156 61 332 339 341 40 71 20 53 52 343 317 269 333 319 325 287 306 337 325 348 8 296 179 222 22 324 357 329 312 256 270 221 259 260 253 251 259 224 180 217 233 235 261 250 201 296 298 239 213 230 238 229 228 226 174 222 231 273 289 277 266 211 158 171 214 126 95 286 246 248 267
345 345 346 348 350 354 355 353 351 350 344 356 106 46 6 55 269 110 203 101 286 13 315 23 334 273 201 247 258 293 340 345 349 304 287 342 327 291 330 83 207 206 254 300 291 293 296 239 227 279 228 288 304 315 172 204 218 208 228 199 226 216 253 314 242 259 263 272 268 235 227 232 243 252 258 276 269 246 212 229 233 202 190 233 247 116 214
341 341 346 348 356 358 357 355 355 351 345 351 106 80 324 117 258 210 344 40 258 178 275 326 293 310 199 242 244 328 335 314 350 332 308 322 293 46 305 300 316 319 322 341 273 297 330 314 284 280 296 316 328 312 317 249 216 168 194 210 180 120 251 253 266 298 300 285 273 275 235 236 224 231 231 248 253 248 225 235 236 225 248 264 308 288 267
337 340 346 350 357 356 359 0 359 355 347 354 69 63 80 19 12 323 327 217 269 274 310 286 357 321 312 332 276 305 235 284 313 280 271 316 287 271 241 295 316 317 314 290 227 233 228 250 281 293 313 311 275 255 209 290 17 176 191 188 189 164 236 165 280 303 276 269 281 285 256 229 251 247 210 228 242 256 257 254 260 258 269 265 267 269 272
333 337 342 347 359 357 1 4 6 6 356 41 40 56 34 16 355 279 319 322 271 264 308 325 326 335 320 49 285 308 232 255 337 294 229 217 255 343 312 311 315 304 297 280 248 249 253 251 247 262 267 261 237 172 295 121 48 293 244 224 183 172 259 138 179 233 268 237 226 242 259 290 259 274 262 237 234 243 254 239 238 221 234 244 253 257 254
327 329 338 343 356 358 0 5 12 21 11 43 9 50 324 322 268 146 79 308 303 319 289 294 61 314 231 246 313 357 285 301 349 324 259 221 226 260 290 303 314 291 298 287 277 279 260 268 268 260 256 242 252 237 249 276 278 300 247 261 190 187 184 198 186 259 250 262 254 256 149 289 309 268 249 234 209 212 231 241 230 212 209 226 229 238 239
322 324 335 335 347 352 358 9 11 33 32 42 18 46 16 27 343 333 184 284 315 106 347 296 83 252 307 304 304 243 272 297 313 336 296 324 281 173 313 296 289 275 278 272 294 301 293 283 273 264 245 237 237 237 242 251 242 226 227 291 291 194 188 197 157 230 281 117 282 155 98 94 224 234 202 166 192 194 207 233 233 235 189 223 217 250 276
317 321 329 331 333 341 351 1 13 21 75 89 93 4 326 335 314 240 332 6 287 77 76 268 239 285 284 284 295 289 292 287 276 225 266 269 279 295 288 268 222 282 257 295 310 309 303 279 243 237 226 224 216 224 210 231 243 214 220 224 265 307 286 259 175 239 275 347 100 31 355 251 246 298 299 244 241 213 237 255 259 260 239 245 263 260 260
313 313 325 325 322 330 340 345 9 11 24 118 66 10 347 297 290 331 299 328 271 326 326 285 250 265 272 282 283 266 265 279 277 270 250 258 286 292 235 269 258 260 303 311 313 319 331 314 307 217 273 321 19 150 211 241 256 228 226 194 212 237 217 191 249 201 314 331 31 355 239 242 197 224 264 260 87 263 248 268 260 252 247 232 243 251 255
307 310 316 322 319 325 328 342 357 18 353 29 50 303 279 13 353 314 324 341 288 220 241 291 266 255 261 248 248 274 291 283 275 256 279 219 236 273 283 236 246 287 298 304 297 315 344 24 14 358 349 0 7 20 267 252 239 150 216 212 209 227 210 167 259 138 237 209 183 242 304 315 359 57 45 159 183 229 204 284 280 259 234 202 237 258 263
302 304 309 313 322 322 331 346 2 0 348 358 120 10 349 258 260 242 330 173 283 289 226 245 304 312 296 286 261 302 294 285 317 291 229 253 253 228 237 286 291 290 299 309 326 30 118 72 29 359 342 21 7 309 318 355 296 235 236 227 220 211 213 204 189 263 200 273 299 313 324 273 272 232 238 198 198 137 128 30 285 278 256 225 247 290 314
297 302 301 307 311 321 331 355 358 356 339 352 68 232 267 226 191 254 236 285 322 313 256 229 260 304 311 301 304 288 296 314 308 301 315 278 260 299 287 279 299 298 300 321 19 19 10 69 349 31 16 350 309 318 322 322 324 285 226 264 16 21 191 148 182 269 31 245 246 258 263 248 214 221 229 230 194 161 128 144 265 322 47 78 263 295 288
287 293 296 299 308 316 313 324 339 343 347 326 233 185 296 189 158 271 278 267 217 242 272 271 259 293 305 296 359 320 245 293 329 349 331 329 322 309 302 320 291 297 329 64 0 41 18 29 24 335 286 299 337 337 283 324 324 315 328 174 29 50 10 112 231 278 246 219 275 270 218 259 258 237 268 242 176 144 142 270 271 282 300 310 302 300 306
279 285 291 292 298 305 300 312 322 328 330 353 282 207 244 241 189 201 266 236 268 281 249 229 170 203 229 228 281 258 275 330 298 283 260 293 300 331 325 337 337 328 9 52 3 49 26 50 24 359 320 300 305 286 352 322 304 307 315 323 320 0 340 15 261 240 240 209 269 291 296 312 334 261 279 269 208 204 205 237 256 295 297 290 271 277 300
273 277 284 290 291 295 296 301 318 318 333 307 314 252 256 232 184 169 345 261 222 262 205 251 171 237 247 202 235 226 205 237 274 289 301 319 271 285 285 266 289 336 9 356 38 66 57 331 201 60 305 315 4 335 314 309 300 297 302 338 314 290 256 272 245 275 291 219 212 254 266 228 207 246 260 264 272 246 251 222 190 260 276 272 267 249 237
263 270 278 284 285 288 291 299 310 330 342 330 300 259 254 192 199 181 206 253 253 267 278 269 252 260 244 234 258 271 308 300 207 225 197 257 312 349 358 26 310 352 329 15 36 294 70 349 294 300 319 284 270 255 286 255 262 248 300 319 295 306 349 313 309 288 254 346 283 312 352 275 140 307 316 194 137 243 267 293 285 265 260 266 259 228 249
256 266 274 279 283 286 288 298 308 335 327 311 299 281 294 212 190 193 193 218 276 294 296 268 251 241 244 247 241 239 231 248 209 212 213 226 304 54 7 230 317 359 316 13 19 314 43 340 332 321 290 288 289 351 315 318 308 285 231 272 232 228 345 318 295 264 315 332 333 320 229 283 307 35 307 280 246 271 280 285 284 291 297 291 269 235 239
248 258 269 275 278 282 289 293 303 320 321 295 293 259 276 214 194 167 206 192 249 236 259 268 269 276 260 253 252 237 235 241 241 217 256 278 203 188 229 286 310 344 274 2 14 344 10 342 326 7 323 300 6 250 301 331 290 294 315 327 330 157 273 261 282 273 308 288 273 250 272 277 279 157 270 270 281 285 281 276 277 299 307 343 309 289 279
241 248 261 270 275 280 286 287 292 314 302 291 282 225 257 275 234 229 182 270 240 255 267 276 271 271 277 256 240 233 235 235 250 243 212 230 275 223 243 256 263 211 262 225 207 193 229 76 275 230 300 231 218 303 321 197 273 337 346 196 261 267 244 268 203 263 252 259 245 270 291 294 295 244 226 266 285 294 298 298 306 313 313 315 293 297 289
230 240 254 266 272 276 282 281 286 298 298 279 258 243 269 221 238 218 250 241 280 298 278 230 334 286 227 300 306 214 218 234 225 229 211 185 228 281 242 234 204 286 254 238 195 74 262 209 244 146 258 257 138 284 280 324 275 269 333 317 292 294 273 329 275 300 352 303 337 325 305 312 310 319 290 277 277 300 309 313 313 312 313 299 282 267 281
226 231 244 256 262 270 277 277 278 289 290 276 275 267 273 267 220 209 228 299 316 13 295 313 265 257 255 249 273 261 216 214 201 212 193 196 207 205 220 205 189 185 217 248 21 34 41 328 320 309 286 264 142 275 211 187 287 68 343 282 324 312 355 324 299 315 279 269 301 307 313 306 304 305 302 334 324 318 325 318 302 299 291 281 280 300 301
228 232 241 250 258 264 269 268 275 284 282 280 281 254 250 259 194 181 205 245 248 258 279 300 278 307 293 316 282 230 219 201 210 204 199 201 206 219 237 278 277 219 309 26 55 345 221 248 235 227 199 286 153 219 239 197 266 301 241 278 6 303 323 331 327 300 290 285 275 316 326 297 286 328 328 335 331 320 326 327 321 315 311 316 313 297 295
233 238 243 250 254 258 262 261 265 277 281 284 276 256 264 265 214 201 203 190 318 294 193 256 274 271 343 302 285 290 255 228 216 213 216 210 213 219 226 237 249 265 272 307 353 212 217 221 173 241 183 237 178 232 240 292 232 279 300 330 351 337 354 331 322 320 322 328 315 329 343 325 326 329 327 333 331 324 321 327 331 330 323 324 325 319 279
229 233 239 246 253 257 260 256 259 273 284 288 286 275 259 264 246 218 207 199 181 215 274 291 309 300 306 269 267 218 244 227 217 218 218 219 213 211 216 226 227 238 202 169 289 227 202 192 240 228 247 290 4 278 210 247 11 302 146 3 352 2 336 332 318 314 306 308 310 318 310 285 277 302 316 320 323 312 319 323 320 317 319 319 323 324 334
226 229 234 241 248 257 258 252 252 262 277 293 299 292 279 246 262 220 200 186 184 277 286 276 275 289 296 300 305 290 261 223 229 221 222 223 213 210 214 214 214 201 166 185 193 185 191 235 189 173 203 212 146 269 9 299 187 329 24 346 356 13 326 324 310 301 288 296 300 310 307 292 297 315 316 320 333 329 324 314 309 303 310 318 321 326 336
220 228 232 239 246 254 255 248 248 253 262 81 20 317 334 335 135 118 161 151 153 188 268 317 315 274 297 302 290 286 281 231 234 228 226 219 215 215 214 203 213 188 183 183 171 231 227 237 257 269 273 178 210 247 4 226 65 258 3 351 344 343 338 302 306 318 316 312 311 307 300 286 287 307 314 319 334 335 320 314 316 306 304 313 316 327 332
215 225 232 239 245 250 250 247 245 240 230 134 86 320 305 313 357 7 149 153 163 184 239 222 258 304 309 243 284 292 301 308 281 244 230 220 219 214 209 174 201 164 193 200 198 234 111 268 219 276 264 202 174 173 225 26 354 296 355 346 341 340 341 334 332 326 327 326 316 301 269 290 327 342 339 340 331 331 326 316 316 310 311 315 316 323 321
217 222 228 236 244 249 249 246 246 243 207 189 196 188 176 117 164 143 142 147 145 163 267 312 305 305 291 298 262 260 292 283 296 322 266 155 251 168 160 176 189 180 168 174 206 156 239 217 187 254 273 212 153 304 52 64 1 341 341 338 338 336 337 333 328 329 334 331 335 336 346 340 341 347 313 315 318 318 321 317 318 321 327 312 296 307 317
215 219 224 230 237 246 247 242 245 240 218 243 253 261 268 252 190 177 193 146 9 214 168 240 261 309 282 276 315 303 269 330 357 6 328 199 213 137 146 155 126 116 195 126 215 205 218 160 203 324 258 39 136 169 76 53 354 338 340 336 335 338 331 328 310 318 337 342 354 340 319 322 318 316 311 304 306 322 328 313 305 323 332 345 359 355 350
210 213 221 227 237 244 243 248 256 280 289 277 275 251 241 234 232 225 197 101 248 254 75 246 297 290 276 331 351 282 16 4 287 11 337 288 199 137 202 128 191 141 205 186 253 322 310 110 205 214 5 12 23 65 19 353 345 343 345 337 337 336 331 316 320 349 343 338 334 324 316 309 306 304 327 345 344 343 343 334 341 350 344 353 356 354 343
204 212 220 229 237 237 250 264 295 222 248 251 263 262 262 239 213 204 190 150 157 237 201 232 206 296 318 332 320 274 291 14 319 298 207 275 26 302 294 91 312 165 280 96 357 195 239 246 170 65 324 319 38 32 13 332 334 343 345 342 347 345 349 350 344 341 332 333 326 328 329 333 345 351 342 336 341 342 346 339 342 3 355 349 348 348 350
190 194 208 218 219 215 44 259 196 223 228 238 223 281 273 41 142 130 160 190 106 153 169 215 162 235 164 281 296 282 344 330 262 311 232 282 328 37 83 111 5 260 142 137 216 322 225 271 72 44 315 66 59 27 337 333 332 337 347 344 347 350 343 334 322 325 325 322 320 329 344 346 351 345 339 340 342 344 340 335 337 346 351 352 344 337 345
170 178 157 135 115 122 223 213 176 194 229 185 236 121 106 97 82 92 115 273 255 204 210 195 243 224 184 239 272 274 12 313 325 334 330 8 291 298 33 31 244 271 45 358 1 68 316 2 81 67 40 78 81 37 7 341 341 339 344 341 340 340 342 341 333 325 324 327 338 352 351 342 340 346 344 340 336 335 338 337 331 331 327 334 333 337 331
144 135 120 129 107 161 248 237 200 221 202 224 218 153 320 18 87 346 122 152 259 183 258 167 249 245 112 159 254 257 28 267 56 354 304 239 355 303 125 163 242 351 318 274 253 179 76 39 73 97 82 95 102 44 9 353 335 334 338 342 338 335 344 345 344 346 345 344 349 346 345 345 338 335 342 331 331 330 325 317 311 305 321 323 314 328 332
131 125 105 138 162 198 204 201 26 333 135 90 102 115 237 3 86 216 214 181 321 220 191 199 246 171 178 222 262 266 196 278 327 29 312 273 86 307 14 17 297 48 313 15 300 41 58 13 70 89 87 18 7 2 360 341 339 335 335 338 335 334 343 348 350 349 339 326 313 316 324 326 325 319 323 322 322 323 321 320 316 313 309 319 335 355 346
118 132 159 174 211 223 229 356 348 122 106 153 298 129 216 170 138 223 66 145 228 232 175 237 207 205 199 212 226 307 168 130 209 300 227 306 187 199 266 102 265 75 279 83 257 20 109 93 46 107 70 8 351 353 351 345 344 347 345 343 344 338 344 350 342 334 324 313 310 311 313 313 313 309 310 316 316 324 328 324 320 316 324 328 334 358 347
137 121 146 218 209 184 220 208 6 68 92 107 265 333 81 236 211 173 120 241 226 230 206 182 150 249 236 215 189 244 289 57 254 121 132 257 254 82 28 268 229 13 281 254 280 59 78 90 102 70 47 8 349 345 343 347 347 346 344 343 341 339 342 345 337 334 335 331 333 330 327 329 329 324 318 315 315 320 324 320 314 312 319 327 336 329 315
151 150 166 115 99 88 75 28 78 91 336 199 131 237 201 237 30 341 158 165 244 206 256 160 225 206 227 185 198 199 271 205 158 109 117 296 295 163 242 305 360 101 257 237 104 57 71 90 89 70 9 5 352 347 344 350 349 346 346 348 345 345 345 343 335 336 340 332 330 329 332 336 336 335 333 331 329 327 328 334 331 329 328 318 319 334 339
106 105 100 88 70 336 107 139 222 136 172 176 92 285 247 170 211 175 251 260 271 128 256 171 243 189 205 113 290 208 211 218 229 289 113 246 294 55 65 350 44 304 241 339 57 51 50 70 43 36 12 2 355 349 348 348 347 346 346 346 346 344 344 338 337 334 328 335 335 335 336 338 339 335 331 331 334 337 341 338 335 329 322 317 330 335 325
110 90 87 7 124 260 125 195 155 101 205 178 164 202 191 291 304 83 355 268 225 230 205 164 260 103 292 254 179 290 356 339 78 46 309 309 84 287 38 254 224 243 79 48 45 68 93 92 72 358 20 357 355 353 349 348 352 346 345 345 346 345 343 336 335 336 339 341 342 341 338 340 338 338 340 344 346 347 341 335 337 336 328 323 344 343 335
113 117 126 137 139 210 113 264 163 180 202 197 171 220 171 180 218 161 183 242 107 233 313 102 130 98 259 270 26 281 110 245 303 100 260 296 318 238 130 259 258 26 54 304 357 325 138 118 87 45 7 359 351 345 334 347 355 350 342 340 343 344 345 345 343 341 340 343 342 342 341 342 343 344 345 345 343 348 350 347 340 345 344 347 348 350 351
151 165 158 140 167 239 190 206 142 229 248 160 200 198 182 236 169 223 252 156 145 337 30 34 62 80 254 255 144 256 337 77 22 246 203 69 94 276 248 245 78 54 18 56 57 83 82 46 44 24 2 346 340 334 339 348 350 351 347 345 343 343 345 346 345 343 342 341 341 345 344 344 345 345 344 343 342 349 356 354 349 348 347 4 1 346 334
131 134 104 113 144 200 142 187 208 200 183 206 213 188 195 198 200 201 226 133 72 230 226 253 184 202 278 304 349 340 23 34 230 269 73 310 209 264 17 75 307 37 73 32 63 20 7 39 33 1 350 347 339 342 343 347 349 352 350 344 343 343 345 346 347 346 345 343 344 346 347 347 346 343 340 342 345 349 352 357 358 353 9 14 352 341 336
145 166 125 146 199 175 177 227 200 313 272 205 249 202 233 169 89 98 282 210 223 87 39 43 347 351 358 302 102 222 253 344 308 292 155 229 350 26 357 43 83 317 103 85 34 16 355 23 7 344 341 341 342 342 347 350 352 353 349 350 346 343 344 347 349 348 348 349 348 347 347 348 348 347 347 343 338 346 354 354 357 8 11 6 358 350 352
152 145 164 204 197 163 215 262 145 180 258 318 298 29 122 115 161 222 268 95 82 80 190 131 197 118 259 241 95 352 301 323 93 262 9 23 91 254 331 296 131 162 100 58 32 12 351 355 352 339 338 347 346 347 345 349 351 348 348 348 345 341 343 348 348 348 350 352 351 349 349 348 347 347 349 349 350 349 355 355 355 9 27 12 358 358 356
113 296 69 102 88 281 216 348 75 208 321 341 38 98 38 107 140 271 215 37 9 89 24 20 35 97 238 86 314 8 251 307 146 312 62 55 77 312 265 272 13 142 23 37 5 343 346 350 333 326 340 342 346 345 344 347 351 349 348 348 346 345 345 346 349 350 352 352 352 350 349 352 353 352 354 353 347 340 348 0 6 7 14 26 12 1 2
306 128 246 185 141 200 137 170 180 198 190 181 151 195 160 166 177 171 322 117 66 46 42 124 237 76 10 22 57 38 265 145 42 350 158 175 353 300 318 9 42 45 26 12 320 319 342 349 345 337 340 346 346 343 346 348 348 347 345 343 345 342 342 346 349 353 351 350 352 353 356 356 349 347 348 350 353 356 1 9 10 5 4 14 28 14 6
118 150 233 248 159 154 149 95 103 167 196 200 182 244 145 184 232 243 253 85 58 86 237 227 81 45 63 181 224 194 304 40 171 45 23 341 28 93 50 28 21 35 3 338 341 345 344 336 343 344 345 339 337 338 342 345 342 338 340 340 342 345 345 349 352 353 351 351 355 355 350 350 346 346 347 356 5 11 14 7 359 360 359 4 14 21 15